GFSNGP_sfc_temp_021.txt.gz
Temp
47 47 46 44 43 44 41 42 36 40 42 48 53 55 56 58 57 57 57 59 60 60 61 62 63 64 65 66 65 64 62 63 63 65 66 67 68 69 72 72 72 70 69 67
37 43 43 40 44 45 45 45 45 46 44 56 57 58 55 55 55 55 56 58 59 59 60 61 62 63 63 64 65 65 61 60 61 61 64 64 66 67 69 70 71 69 68 66
30 42 41 34 44 46 47 49 47 40 46 53 51 52 52 52 54 55 56 57 57 58 60 61 62 63 62 63 65 62 61 61 59 60 60 63 64 65 65 67 69 68 67 66
31 36 25 45 53 52 48 49 50 49 50 51 51 52 54 56 55 55 56 56 58 60 60 62 62 63 63 64 63 63 61 60 59 60 59 60 62 62 64 67 67 67 66 66
29 31 38 44 49 46 43 42 50 48 48 49 51 51 51 56 57 56 56 58 59 61 61 62 62 63 62 62 62 61 61 59 59 59 57 56 58 61 63 65 65 65 66 64
34 25 22 42 49 54 50 34 49 46 45 46 47 36 45 55 56 56 58 59 59 60 61 61 62 62 60 59 60 60 59 57 58 59 56 56 57 60 62 64 64 65 65 65
34 30 36 49 52 52 29 35 48 49 47 46 41 44 50 54 55 58 58 58 60 59 58 59 61 61 58 59 58 58 58 58 57 57 56 56 56 59 61 63 63 63 63 64
37 30 27 54 50 39 46 50 48 48 48 45 45 47 50 53 54 55 55 56 58 56 57 59 59 59 57 57 57 57 56 55 56 57 57 58 53 53 62 61 61 61 61 60
38 37 50 53 50 54 53 49 48 46 46 46 46 48 51 51 53 54 55 55 57 56 55 57 58 57 55 56 56 53 53 54 56 57 59 58 53 49 57 61 60 60 58 56
41 46 49 51 54 54 51 48 48 49 49 49 47 49 49 51 52 53 54 54 55 54 53 54 56 56 57 55 54 51 51 54 55 56 58 57 55 53 56 59 59 59 56 55
42 47 50 51 52 50 49 50 49 50 50 48 48 47 48 49 51 52 53 54 54 53 52 52 55 55 56 54 50 47 49 52 55 55 56 53 53 50 57 62 61 58 56 56
40 49 46 46 49 48 46 47 46 46 47 50 50 48 50 50 51 51 51 52 51 52 51 52 53 53 54 53 47 45 45 48 50 47 49 52 50 51 54 57 55 55 56 58
48 53 49 46 47 49 47 48 49 49 50 48 50 50 50 48 49 49 49 49 46 48 49 49 50 51 52 50 45 44 43 45 47 45 46 49 51 48 47 50 52 53 54 54
52 48 40 45 41 47 48 51 50 49 49 48 48 49 47 46 46 46 45 46 46 45 45 46 47 48 49 47 45 43 43 45 43 42 42 50 54 49 48 48 47 47 50 50
47 47 45 48 49 48 48 48 44 44 45 45 47 45 45 42 42 42 44 44 44 44 43 44 44 44 46 47 44 43 42 41 40 41 46 52 52 53 51 49 47 45 47 48
48 48 48 45 44 43 43 43 41 40 42 43 42 42 42 41 41 43 44 44 41 40 43 43 43 45 46 47 43 43 42 41 41 42 45 48 49 47 46 46 46 45 46 46
43 41 41 39 39 40 39 41 41 40 40 40 39 39 38 37 37 39 41 43 43 43 43 43 43 46 46 45 43 43 43 42 41 41 41 44 44 44 45 45 44 45 45 47
46 43 41 40 37 37 36 38 38 39 37 37 37 36 35 34 34 35 37 39 41 42 44 44 45 46 44 43 42 43 43 43 42 41 42 43 43 45 45 45 45 45 45 46
44 40 39 38 39 38 38 38 38 38 37 36 35 34 34 34 35 36 37 37 38 39 42 45 45 42 41 42 40 41 41 42 42 42 43 44 44 45 46 46 46 46 46 45
40 40 40 39 40 39 38 39 40 37 36 36 35 34 34 35 39 38 38 37 39 40 44 43 41 40 42 43 43 41 41 41 42 43 44 44 44 45 45 45 45 45 45 46
39 39 39 39 39 40 39 40 38 36 36 36 34 33 33 36 37 39 38 37 40 43 42 42 41 41 42 43 42 42 41 42 43 44 44 44 43 43 43 44 44 44 44 45
39 38 38 39 38 37 39 39 38 38 36 35 35 35 34 34 36 38 39 38 41 43 42 41 41 42 42 43 42 41 42 42 43 42 41 42 42 41 42 43 43 44 44 44
39 38 38 37 36 36 38 38 38 39 36 35 34 34 34 34 35 34 36 40 41 42 41 41 43 43 42 41 42 43 43 42 41 41 41 41 41 41 40 40 41 42 42 42
39 39 38 38 38 37 35 35 38 40 39 39 38 36 36 34 35 37 39 42 42 41 41 41 42 43 42 41 42 42 42 42 41 41 41 41 39 39 39 40 40 41 40 41
39 39 39 37 35 35 35 38 39 39 39 39 39 40 39 39 36 37 38 39 41 41 41 43 43 42 43 43 42 42 42 42 42 42 42 40 39 39 40 40 40 41 41 41
38 37 39 38 37 38 38 39 38 40 40 38 40 40 41 41 41 41 41 41 39 40 40 42 42 43 43 43 43 43 42 42 43 42 42 41 41 41 40 40 40 40 41 41
39 39 39 37 38 38 39 39 39 39 41 39 39 41 41 42 41 40 41 40 40 40 39 39 40 42 42 42 42 42 42 42 41 43 43 42 42 41 41 40 40 40 40 40

GFSNGP_sfc_temp_024.txt.gz
Temp
44 44 43 41 41 42 39 39 32 36 38 44 49 50 51 53 53 52 53 54 56 54 55 56 57 57 59 59 59 60 60 60 54 54 57 58 57 60 63 65 67 66 62 61
35 42 42 39 42 42 42 43 42 43 41 51 52 53 52 50 51 50 51 52 55 55 56 56 57 56 58 58 58 60 59 59 58 53 56 55 55 54 59 61 63 64 62 60
27 40 38 30 41 44 44 46 44 35 42 49 46 46 47 47 50 50 50 52 53 54 55 56 56 57 56 58 59 58 58 59 59 58 55 56 55 52 52 55 61 62 62 60
28 33 20 41 49 48 43 45 46 45 45 44 44 46 49 51 50 51 51 52 53 54 55 55 56 56 57 58 57 56 57 57 59 56 55 56 54 50 50 50 59 60 61 59
25 27 34 40 46 43 40 38 46 43 45 46 48 47 45 52 52 50 51 53 54 55 55 55 56 56 55 55 55 54 55 57 56 55 54 55 53 49 49 49 54 60 60 58
31 21 18 39 47 52 46 29 46 46 44 44 44 32 38 48 50 49 52 54 53 54 55 54 55 55 53 52 53 53 55 54 55 54 53 52 53 50 49 50 50 60 59 59
30 27 33 46 48 50 28 31 46 47 45 43 38 40 45 49 48 50 52 52 54 53 52 53 55 54 51 51 51 53 55 54 53 52 51 52 53 52 49 49 49 57 58 58
31 26 23 49 47 36 43 47 48 45 44 42 43 44 46 47 47 48 48 49 52 51 51 53 54 53 50 49 52 53 53 53 51 50 52 54 52 49 50 48 48 54 57 55
33 32 47 50 48 50 50 46 45 44 45 45 44 44 45 45 46 47 47 48 51 51 50 52 52 52 48 50 52 52 51 50 49 49 50 52 53 47 49 48 47 52 55 53
37 42 45 48 51 52 50 46 46 46 46 45 42 43 44 45 45 46 48 47 50 49 48 48 50 51 49 50 52 50 48 47 48 47 48 51 54 52 49 48 47 51 54 51
38 43 46 48 49 47 45 46 46 46 46 44 44 43 44 44 45 46 47 47 48 47 46 47 47 48 48 49 48 48 47 46 45 46 46 49 51 50 49 49 50 53 54 53
34 45 43 43 47 47 44 44 44 44 44 45 45 43 44 43 44 44 44 45 45 45 45 45 46 46 46 47 47 46 46 44 44 43 43 46 47 47 51 50 51 54 56 56
43 48 45 45 46 47 45 45 45 44 43 41 43 43 43 42 43 44 43 43 42 43 43 44 43 44 46 45 47 45 43 43 43 42 43 43 44 45 44 47 51 55 55 55
50 46 40 44 42 47 45 44 44 44 44 43 42 42 42 41 42 40 40 41 42 42 43 42 43 43 45 46 45 44 43 44 42 42 42 42 44 44 44 45 45 47 52 52
45 46 45 46 45 43 44 42 39 38 39 39 41 40 40 37 35 36 37 38 40 41 41 42 42 42 45 45 44 43 42 41 40 40 40 42 44 44 44 44 44 44 45 48
45 45 44 41 40 40 39 38 36 36 38 39 38 38 38 37 36 36 37 37 36 36 39 40 41 43 45 44 42 42 41 41 39 39 42 43 42 42 43 42 42 43 42 43
40 38 38 36 36 37 37 38 38 38 38 38 37 37 36 36 35 35 36 37 37 37 39 41 41 44 44 43 42 40 40 40 41 42 42 43 42 41 42 41 41 41 42 44
43 41 40 39 38 36 37 38 39 38 38 38 37 36 35 34 33 35 38 38 38 38 40 41 42 43 43 43 41 42 40 39 40 40 41 41 41 42 42 42 42 41 42 45
42 40 41 40 39 38 38 38 38 39 38 38 36 34 35 34 35 36 39 38 38 37 38 42 42 41 40 42 42 41 40 39 39 40 41 42 41 42 42 42 42 42 42 42
39 41 41 40 40 40 38 39 38 37 38 38 36 34 34 34 35 36 38 37 38 39 40 40 41 41 41 42 42 41 40 39 38 38 39 39 39 40 41 42 42 42 42 42
38 40 39 38 38 39 38 38 38 36 38 37 35 33 34 35 35 36 36 35 39 41 41 41 41 41 41 41 41 40 40 40 40 40 40 40 40 41 41 42 42 42 42 41
39 39 38 38 38 37 38 39 38 38 36 35 36 36 35 34 35 36 38 37 39 42 41 40 41 42 41 42 41 40 40 40 40 40 39 39 39 38 39 41 41 42 41 41
39 39 39 37 36 36 38 38 36 37 35 34 35 35 34 35 36 34 33 39 40 41 40 40 42 43 43 40 40 40 39 39 39 39 39 38 38 38 38 39 39 40 39 39
40 39 38 39 39 37 34 36 37 37 35 36 36 36 36 35 36 37 38 40 42 41 41 41 42 42 41 39 39 39 38 38 39 39 38 39 37 38 38 38 38 39 39 38
40 39 38 37 35 35 34 36 36 35 35 34 35 36 37 38 36 37 39 39 41 40 40 42 42 42 40 39 39 39 39 39 39 39 38 38 37 37 38 38 38 39 38 38
39 38 37 37 36 36 36 37 35 36 35 31 32 35 35 37 38 39 39 40 39 40 38 39 41 40 40 40 40 40 39 40 39 39 39 39 38 37 37 38 38 39 39 38
39 39 37 36 37 37 37 37 36 35 38 34 33 35 36 36 36 37 40 39 39 38 38 38 38 40 39 39 39 40 39 38 39 39 39 39 39 37 38 38 38 39 39 39

GFSNGP_sfc_temp_030.txt.gz
Temp
35 37 37 36 35 36 32 33 26 33 33 40 43 41 40 42 43 45 46 48 50 49 46 46 46 47 48 47 49 51 51 50 52 50 52 50 48 52 53 52 53 53 50 50
28 35 35 33 36 36 36 36 36 36 35 44 43 40 40 41 43 46 47 48 49 49 50 50 51 51 50 49 49 51 51 51 51 52 51 47 51 50 48 51 52 51 50 49
20 31 30 25 32 35 37 39 37 30 38 40 39 40 42 45 46 46 46 47 48 48 50 50 50 51 48 50 51 51 51 51 51 51 49 50 50 48 48 48 47 48 48 48
19 25 16 35 40 40 38 40 40 40 40 40 40 45 45 46 45 45 46 47 48 48 49 49 50 50 50 50 51 51 51 50 50 49 50 47 48 48 43 44 45 46 47 47
16 16 28 34 38 38 34 35 41 39 40 43 44 41 41 47 47 45 46 47 47 48 48 49 49 50 50 50 49 49 49 49 49 50 47 47 47 45 44 45 46 46 47 48
22 12 12 32 40 44 40 27 40 39 39 38 38 28 36 44 45 45 46 47 46 47 48 48 48 50 48 48 47 47 49 49 50 48 46 45 47 44 46 47 47 47 48 48
23 14 24 37 42 43 24 27 40 39 37 37 33 36 41 44 44 45 45 45 46 46 45 46 48 49 46 47 45 49 48 50 49 48 45 46 43 47 47 46 46 45 46 48
22 16 18 41 40 33 36 38 39 37 37 37 39 40 41 42 41 41 41 42 44 43 43 45 46 46 45 44 48 48 48 45 46 44 44 48 45 46 46 45 44 43 44 46
27 27 39 41 40 42 40 37 37 36 39 39 38 38 39 38 39 40 40 40 42 41 41 43 45 45 43 43 46 46 45 45 44 43 44 44 43 43 44 44 42 43 45 44
32 36 39 42 42 42 40 38 40 39 38 38 36 37 36 37 38 38 40 41 41 41 38 37 39 41 41 42 43 43 43 43 41 40 42 43 45 46 44 43 42 44 45 44
31 38 39 39 39 39 40 40 39 39 38 37 36 35 37 38 39 40 40 41 41 39 38 37 38 38 39 40 42 40 41 41 40 42 42 41 43 45 45 44 44 43 45 45
32 38 36 35 39 40 38 37 37 36 36 37 37 38 39 38 38 39 39 39 37 37 37 37 38 38 39 40 41 41 39 41 43 42 42 40 41 43 47 48 48 49 49 47
38 38 38 39 40 39 36 37 37 36 37 36 40 38 39 38 38 40 38 37 36 36 37 38 38 38 40 41 41 41 40 41 41 41 39 39 41 41 39 43 47 49 49 49
40 36 33 37 35 37 37 37 38 37 38 39 39 40 38 38 38 37 36 37 37 38 38 39 38 38 40 41 41 41 40 43 41 39 39 40 41 41 41 40 39 44 48 48
40 39 37 37 36 35 36 35 34 34 36 38 39 38 38 36 35 36 37 38 38 37 38 39 38 38 40 40 40 40 40 40 40 40 40 41 41 41 41 40 43 43 44 47
38 38 36 35 32 32 31 33 32 36 38 38 37 37 38 38 37 36 37 38 37 36 37 38 39 40 41 41 41 39 39 40 41 40 40 40 39 39 40 43 43 43 44 45
34 33 33 31 30 29 30 34 37 38 37 37 36 38 37 36 36 36 37 38 39 38 39 39 39 40 41 40 38 38 38 40 42 41 41 41 41 42 43 43 42 42 43 46
39 36 35 33 32 32 33 35 36 38 36 38 38 37 36 34 33 35 36 38 38 38 39 40 41 40 40 40 38 38 37 40 40 40 40 40 40 41 41 41 41 40 41 44
37 35 34 34 34 33 33 35 37 38 38 37 37 35 33 36 35 36 38 37 36 36 38 40 42 40 39 41 40 38 37 38 40 40 40 40 39 40 40 40 40 41 41 41
35 35 35 35 36 35 36 38 38 38 38 38 33 32 31 34 36 35 37 36 37 38 41 41 40 39 39 40 41 39 38 37 38 39 39 39 39 39 40 41 40 40 41 41
34 34 34 34 34 36 39 38 38 36 37 33 31 30 30 32 36 36 34 34 37 40 41 40 40 39 39 39 38 38 38 37 37 37 37 37 38 38 39 38 39 40 40 40
33 33 33 34 33 36 39 39 39 37 35 31 31 31 30 31 32 35 37 35 38 42 40 40 40 41 39 40 37 37 37 37 36 37 37 37 37 37 37 38 38 39 39 39
32 33 33 33 33 37 39 38 38 37 35 30 29 29 28 30 31 32 32 37 39 41 38 40 42 42 40 38 37 37 37 36 36 36 36 36 37 37 37 37 38 38 38 38
31 32 33 35 35 37 34 36 37 37 36 33 31 31 29 27 29 32 34 39 41 40 39 41 41 41 39 38 37 37 37 36 36 36 36 37 36 36 36 37 37 38 38 38
32 32 34 33 35 34 34 35 35 35 36 32 31 31 32 31 28 30 32 33 38 38 36 40 42 41 38 38 38 37 37 37 37 36 35 35 35 36 37 37 37 37 37 38
31 32 32 34 36 36 35 35 33 35 34 28 28 30 30 31 32 32 32 35 33 36 34 35 37 38 38 38 38 37 37 38 37 36 36 35 36 36 37 37 37 38 37 37
32 37 33 34 37 37 36 36 34 35 32 29 29 30 31 31 31 33 35 31 32 33 33 34 34 36 37 37 37 38 37 37 38 37 36 36 35 35 37 37 37 38 38 37

GFSNGP_sfc_temp_033.txt.gz
Temp
33 35 34 34 35 34 31 30 26 33 31 39 42 43 44 41 41 43 45 48 49 49 50 50 49 50 51 50 51 51 49 48 48 49 48 45 46 48 48 51 51 50 49 48
28 33 33 31 34 34 35 35 34 35 33 44 45 39 39 40 42 44 45 47 48 48 49 49 50 50 51 51 51 51 49 48 48 49 49 47 47 46 46 47 47 48 46 48
19 29 29 27 33 34 33 35 35 29 38 39 38 39 39 42 43 43 44 44 45 45 46 47 48 49 48 49 51 50 49 49 50 51 49 48 47 46 45 43 45 45 44 45
18 24 18 36 38 38 36 38 39 39 39 38 38 42 40 42 42 42 43 43 44 45 46 46 47 47 48 49 48 48 48 49 50 50 49 48 46 45 42 41 42 43 44 44
16 16 27 35 36 35 33 33 40 38 38 40 40 38 39 43 42 42 43 44 44 45 45 45 45 47 46 46 46 46 47 47 48 49 48 46 45 43 41 41 42 42 44 44
21 12 13 33 38 42 39 27 38 38 37 36 35 27 36 43 43 42 43 43 42 43 43 43 43 45 43 43 43 43 46 47 48 49 46 46 46 42 42 40 42 44 45 46
22 14 24 37 40 41 24 28 38 38 36 34 30 33 40 41 41 42 41 41 42 41 41 43 44 44 41 40 40 43 46 47 47 47 47 47 46 43 39 41 43 42 43 45
22 15 18 39 38 33 36 36 38 36 36 35 36 38 38 38 38 38 38 40 42 42 42 44 44 43 40 38 41 42 42 43 44 45 45 47 43 38 41 41 40 40 43 43
28 28 38 39 38 40 39 37 36 35 37 36 35 35 36 35 36 38 39 40 40 41 41 42 43 42 38 38 40 39 39 39 40 43 43 43 39 39 40 40 40 42 43 42
35 36 38 40 41 40 39 38 38 37 36 36 33 35 34 35 37 37 39 39 40 40 38 38 39 40 39 39 40 39 38 39 39 41 40 39 41 42 41 41 41 43 42 41
32 38 39 39 38 40 39 38 37 37 36 35 34 34 35 35 36 38 39 40 40 38 37 37 38 39 40 40 41 38 38 39 40 41 39 39 42 42 40 41 44 42 42 43
35 41 37 35 39 40 38 37 36 34 34 35 35 34 36 35 38 38 38 39 38 37 37 38 39 40 40 41 40 39 38 39 40 39 42 42 41 39 45 47 48 48 49 47
40 38 38 39 39 39 36 36 36 35 35 33 35 35 38 37 38 40 38 38 37 37 38 39 39 39 40 40 40 38 37 39 40 40 38 38 40 39 38 43 47 47 47 50
38 37 34 36 36 37 37 36 37 36 35 35 35 39 38 37 37 36 36 38 38 39 39 39 39 39 40 40 40 39 39 41 39 39 39 39 39 39 41 40 39 40 48 48
38 38 38 36 35 35 35 34 32 32 33 34 36 36 37 36 35 36 38 39 39 39 38 39 38 39 40 40 39 39 39 39 39 39 39 40 40 40 40 40 40 42 44 47
38 37 34 34 33 33 32 32 31 31 33 34 36 37 37 37 37 37 38 39 36 36 38 38 38 39 40 40 39 38 38 41 42 41 41 40 40 39 39 39 41 43 43 43
34 31 30 29 30 30 31 32 33 33 33 34 35 38 38 35 36 36 37 38 39 38 38 39 39 40 40 40 39 38 37 40 42 41 40 41 41 40 42 42 42 43 44 46
40 37 36 34 32 31 31 33 34 33 33 37 37 38 35 31 32 34 36 38 39 38 39 40 41 40 39 39 39 38 38 39 40 39 39 40 40 42 41 41 41 40 41 43
36 35 34 34 33 32 31 32 33 34 37 37 37 32 31 31 33 35 36 36 36 35 38 39 41 39 38 40 41 38 38 38 39 38 39 40 39 40 40 40 40 40 40 41
34 34 34 33 34 33 33 34 34 37 38 37 31 30 28 30 32 34 36 35 36 37 40 40 39 38 38 39 41 38 37 37 37 37 39 38 38 38 39 40 40 40 41 41
33 33 33 32 32 34 34 35 37 36 38 33 29 27 27 30 31 32 32 33 36 40 40 40 39 39 38 39 38 38 37 36 36 36 36 36 37 38 38 39 39 40 40 40
32 32 32 32 32 32 34 35 38 38 37 34 31 30 29 28 29 30 32 33 36 42 39 38 39 42 40 40 37 37 37 37 36 36 36 36 36 36 36 37 38 39 39 39
31 32 32 31 31 32 34 35 38 37 35 35 30 29 27 28 29 27 27 34 36 40 38 38 42 42 41 38 37 36 36 36 35 35 36 36 36 36 36 36 37 38 38 39
31 31 32 33 33 32 30 33 37 37 36 36 34 31 29 25 28 31 31 35 39 39 37 39 41 42 40 38 37 37 36 35 35 35 36 37 36 36 37 37 36 37 37 38
32 31 32 31 30 29 30 35 35 36 36 36 32 30 31 30 28 29 29 31 36 36 34 38 40 41 38 37 37 37 37 37 36 35 35 35 35 36 37 37 37 37 37 37
31 33 33 33 32 31 31 35 34 34 35 32 26 29 30 30 30 30 30 34 31 34 32 34 35 36 36 37 37 37 37 36 36 36 36 35 36 36 36 37 37 37 37 37
31 35 32 30 32 33 33 36 34 34 37 32 28 30 30 30 30 32 33 30 30 30 31 33 33 35 36 36 37 37 37 37 37 36 35 34 35 35 36 37 36 37 37 37

GFSNGP_sfc_temp_036.txt.gz
Temp
31 34 33 33 34 33 30 29 28 37 31 40 40 39 40 40 40 41 42 45 46 46 47 47 46 47 49 49 50 50 49 49 49 50 49 50 47 47 48 48 48 47 47 47
28 31 30 30 34 34 35 35 33 35 33 44 43 36 38 38 38 41 42 44 45 46 45 45 45 46 47 47 47 49 47 47 49 49 49 48 46 46 46 47 47 45 44 45
21 27 29 27 33 33 32 33 34 29 37 36 35 38 37 38 39 40 41 43 43 43 44 44 44 45 43 44 46 45 45 46 47 48 47 48 48 48 46 45 44 43 42 43
19 24 19 36 37 37 35 36 37 37 37 37 37 38 39 39 39 39 41 41 42 42 42 42 43 43 43 43 43 43 43 44 45 46 47 48 48 47 44 44 42 41 41 42
16 16 28 36 34 34 32 34 40 38 38 38 38 35 35 41 39 40 40 41 41 41 41 41 41 43 45 44 44 42 41 42 43 45 45 46 45 44 43 42 40 40 42 41
20 11 15 33 37 40 38 28 37 38 36 35 34 26 36 37 40 39 40 40 39 40 41 41 43 45 43 42 42 40 42 42 42 43 42 43 44 45 45 45 44 43 42 42
20 14 24 36 39 40 26 33 36 38 36 34 30 32 38 40 38 39 38 38 41 40 39 40 44 43 40 39 38 41 42 40 40 40 41 41 43 44 45 42 42 38 40 42
21 15 19 39 36 33 37 35 37 36 36 35 35 36 36 37 36 36 36 38 39 39 40 41 43 41 38 38 40 41 41 40 39 39 41 42 41 41 40 38 35 37 38 38
27 27 38 41 39 39 39 37 36 35 36 35 34 34 34 34 34 36 36 37 41 40 40 41 42 41 38 40 41 41 40 39 40 40 39 42 38 39 37 37 36 37 38 39
30 35 41 43 42 40 39 38 38 37 36 35 32 33 32 33 34 35 36 38 41 40 38 39 41 41 41 42 41 40 39 38 38 39 40 42 39 39 37 37 36 38 38 39
30 39 41 41 39 39 39 39 37 36 35 34 33 32 32 33 34 36 36 39 39 38 38 38 40 40 43 42 40 39 39 38 37 40 40 40 40 40 41 42 40 38 39 42
36 46 40 37 37 39 38 37 37 34 33 34 33 32 33 33 36 38 38 38 38 38 38 38 40 40 42 42 40 39 37 37 37 38 40 40 39 39 45 46 47 47 48 47
44 38 39 37 38 39 37 36 36 34 34 32 34 34 34 34 35 38 38 37 37 37 38 40 40 40 41 41 40 39 37 38 38 39 38 37 38 38 37 40 46 47 48 47
44 36 33 35 36 37 36 36 38 35 34 34 34 34 34 34 35 36 36 37 38 39 39 40 39 39 41 40 39 39 38 40 38 38 39 38 38 38 39 38 38 39 44 48
39 38 40 35 34 34 35 34 32 31 32 32 34 33 34 33 33 35 37 39 39 38 39 39 38 38 40 40 39 39 38 38 40 40 41 40 39 39 39 40 39 39 44 46
38 37 34 34 33 32 31 31 30 30 31 32 32 33 34 35 34 34 35 37 35 35 38 38 38 39 40 39 39 39 38 41 41 39 40 41 40 39 38 38 39 42 43 44
34 31 29 28 30 30 30 31 32 31 32 32 32 33 34 32 31 32 35 35 36 37 39 39 38 40 40 39 39 38 37 38 41 38 39 41 42 40 41 42 42 42 43 44
41 39 36 34 32 31 30 31 32 32 31 32 33 33 31 29 28 30 34 37 37 38 39 39 40 41 40 39 40 38 37 37 38 38 39 39 40 41 41 41 41 41 41 43
37 36 34 35 34 32 31 31 32 33 33 34 33 29 29 29 29 30 32 34 36 34 35 38 41 40 39 40 41 38 37 36 36 37 38 39 38 39 39 40 39 40 41 41
35 35 35 34 33 33 31 32 32 33 34 35 31 29 27 28 29 30 31 30 32 35 40 38 39 39 40 39 40 37 37 36 36 36 37 38 38 38 39 39 39 41 41 41
35 34 33 32 31 32 33 33 33 33 35 36 33 26 26 28 29 29 29 28 32 36 40 40 39 40 40 39 38 37 37 36 36 35 35 36 36 37 38 39 39 40 40 40
34 32 32 31 31 31 32 33 33 34 36 36 36 32 29 28 28 29 30 29 32 39 39 37 39 43 40 40 37 36 36 36 35 35 35 35 35 35 36 37 38 39 40 40
33 32 31 30 30 31 32 32 33 34 35 35 34 34 27 28 28 25 26 31 33 37 36 36 42 43 41 38 37 37 36 35 34 35 35 35 36 36 35 36 36 37 37 38
31 32 32 32 31 30 29 31 32 33 36 36 36 35 29 26 28 30 30 34 37 38 36 37 40 42 39 37 37 36 36 35 35 35 35 36 35 36 36 36 36 37 38 39
31 31 32 31 30 30 29 30 31 32 36 36 36 33 31 30 27 29 29 30 35 35 33 37 39 40 36 37 36 37 36 36 35 35 35 35 35 36 36 36 36 37 37 38
30 32 33 33 33 31 31 30 29 30 35 34 33 30 30 30 30 30 29 33 30 33 30 33 34 36 35 36 37 37 37 36 35 35 35 35 35 36 36 36 36 36 36 37
31 35 31 31 31 32 31 31 30 30 36 35 34 30 30 30 30 32 33 29 29 29 29 31 32 34 34 35 36 37 37 37 37 36 35 35 35 35 36 36 36 37 37 38

GFSNGP_sfc_temp_042.txt.gz
Temp
51 49 47 48 49 48 46 51 46 53 54 59 62 61 62 61 58 56 57 57 57 56 56 57 57 57 56 55 55 55 54 53 53 54 54 53 52 53 55 55 56 56 56 57
45 43 43 41 47 48 48 48 49 51 48 60 61 59 58 57 56 55 55 56 55 55 54 54 54 53 53 52 53 54 52 51 52 50 51 50 50 51 51 51 52 53 52 53
42 42 43 43 49 51 51 51 50 46 57 57 55 54 56 56 55 54 54 53 52 52 52 52 52 52 50 51 52 50 48 49 48 48 49 47 46 47 48 48 50 50 52 51
39 43 35 50 54 51 50 52 52 51 53 56 56 55 56 56 54 54 52 52 52 52 51 51 51 51 51 47 48 47 47 48 48 49 46 45 43 43 45 45 47 48 50 51
36 38 47 52 49 47 45 50 56 52 55 57 55 51 55 55 53 52 52 52 51 51 50 50 50 50 46 45 46 46 45 47 47 46 43 43 41 41 41 43 43 46 48 49
38 30 32 50 47 50 49 43 56 54 55 55 51 47 54 53 53 52 52 51 49 49 50 49 50 49 46 44 43 45 46 45 46 44 43 41 40 40 41 42 43 43 43 47
38 32 41 52 50 50 39 47 55 54 55 52 48 54 54 53 52 51 49 48 48 48 47 48 47 46 43 44 43 46 47 46 45 43 42 41 41 40 41 41 41 43 44 47
38 31 31 52 48 44 56 55 53 54 54 51 52 52 50 49 48 47 46 46 47 46 46 46 46 45 43 42 46 47 46 43 42 41 42 41 40 40 42 45 44 43 44 45
43 43 53 53 56 59 54 53 54 53 54 52 50 49 48 46 47 46 46 46 47 46 45 45 47 45 43 44 44 44 42 42 41 41 41 41 40 40 41 44 43 43 44 44
44 52 53 57 58 58 57 54 55 55 53 51 48 48 46 46 46 45 46 45 46 45 44 43 46 45 45 44 44 42 40 41 40 39 40 41 41 41 41 42 40 43 44 43
50 54 54 55 58 57 57 56 52 52 51 49 48 46 45 44 44 45 44 45 46 45 43 42 43 43 46 44 42 39 40 40 40 39 39 40 41 40 40 43 43 42 43 43
45 57 54 54 57 58 53 53 54 51 48 47 46 45 44 44 45 44 44 45 44 44 42 41 42 43 44 43 41 40 39 39 38 39 39 39 40 40 43 44 45 46 47 46
53 56 54 54 55 55 52 53 54 51 50 47 46 45 44 43 44 43 44 44 43 41 40 40 42 43 43 41 43 41 39 38 39 39 38 38 38 38 38 42 45 45 46 46
56 54 49 52 50 56 53 53 50 50 49 47 45 45 43 43 43 42 42 43 43 42 40 42 42 42 42 42 43 41 39 41 38 38 38 38 40 42 42 39 38 39 47 47
53 53 51 52 52 51 51 50 47 46 45 44 44 43 43 41 40 41 43 43 43 43 43 42 42 40 41 45 43 40 38 38 38 38 38 39 40 41 41 40 41 42 43 45
49 50 50 48 48 48 48 47 45 45 44 44 42 42 42 41 41 42 42 43 40 39 42 42 41 41 43 44 41 41 38 40 40 38 37 37 40 42 43 42 41 41 41 43
47 48 47 46 47 47 46 47 46 46 44 43 42 42 41 41 40 41 41 43 42 42 43 42 40 41 43 43 42 39 37 38 40 37 37 37 40 41 41 41 41 41 42 45
49 48 48 47 45 45 45 44 44 44 41 43 42 41 40 38 36 38 41 42 43 43 43 42 43 41 42 43 43 39 37 37 37 37 37 38 39 41 41 41 41 40 41 43
51 48 47 46 46 45 44 43 41 43 43 42 41 39 39 39 39 40 41 41 41 39 40 43 42 40 41 43 43 39 37 37 36 37 38 38 38 39 40 40 40 40 40 40
51 51 49 46 44 43 42 44 45 43 43 42 40 38 37 38 40 40 40 39 41 40 42 42 42 40 42 44 42 39 37 36 36 36 37 37 37 38 39 39 39 39 38 39
50 50 47 45 45 44 44 45 44 41 42 41 38 36 37 39 40 40 39 38 42 42 42 41 42 40 43 42 42 40 37 36 36 36 36 36 36 36 36 38 39 38 38 38
50 48 46 44 43 43 44 44 44 42 41 39 39 40 40 39 40 41 42 39 41 40 41 41 42 43 42 41 40 39 37 36 36 36 36 36 36 36 36 36 37 37 38 38
49 46 46 44 42 43 44 43 42 41 39 38 38 40 40 40 41 38 38 42 41 41 41 40 42 42 41 39 38 38 37 37 36 36 36 36 36 36 36 37 37 37 37 38
49 47 46 45 43 42 39 41 41 41 40 40 40 41 41 39 41 43 42 40 38 39 39 39 41 41 39 38 39 37 37 38 37 36 37 37 36 36 37 37 38 38 39 39
48 46 44 42 39 39 39 40 39 39 39 40 41 42 41 42 40 42 41 41 38 39 39 39 39 39 39 39 39 37 37 38 39 39 38 38 36 36 37 38 38 38 39 39
48 46 43 42 41 41 40 40 38 40 40 39 42 43 43 42 42 41 41 39 40 38 38 38 39 39 39 39 38 39 37 37 40 39 39 40 39 39 38 39 40 39 39 39
47 43 42 42 42 41 39 41 40 39 41 41 41 43 43 42 42 41 39 41 41 40 39 39 38 38 38 38 38 39 37 37 37 39 41 40 40 41 41 41 41 41 41 42

GFSNGP_sfc_temp_048.txt.gz
Temp
51 53 53 51 51 51 48 49 40 47 48 54 53 52 53 54 56 54 56 57 56 54 52 52 51 51 51 50 51 51 50 48 48 49 48 48 48 49 49 49 49 49 49 49
44 54 50 47 50 50 50 51 50 50 48 55 54 55 54 54 55 55 54 56 55 54 53 51 50 49 50 50 50 50 49 48 48 47 47 46 48 48 48 48 48 47 46 46
36 48 47 40 49 50 49 52 51 43 49 53 52 54 53 53 54 54 53 52 52 51 50 49 48 50 48 49 49 48 47 46 46 47 46 47 47 47 46 45 46 44 44 43
33 40 29 48 55 54 51 52 52 52 52 53 52 53 53 55 54 51 52 51 50 49 48 47 47 48 49 47 46 46 44 44 45 47 46 46 45 44 44 44 42 42 42 42
31 31 43 49 49 48 45 45 53 50 52 54 54 52 51 54 53 50 49 50 49 48 47 46 47 48 46 45 45 45 44 44 46 46 44 44 42 42 42 42 41 41 41 41
35 27 25 45 50 53 50 34 52 52 51 51 50 37 44 53 53 50 51 50 48 47 47 46 46 46 44 44 43 43 43 45 46 45 43 42 42 41 42 42 42 42 41 42
33 31 37 51 51 51 33 36 50 51 49 48 43 45 51 54 53 51 50 49 48 46 44 45 46 46 43 43 41 43 44 45 44 44 43 43 42 42 41 41 41 41 41 43
35 31 28 52 48 41 47 50 51 50 49 48 49 51 52 52 50 49 47 47 47 44 43 45 46 45 42 41 43 44 45 43 43 43 43 43 41 42 41 40 39 39 40 40
40 38 52 53 51 54 52 49 48 48 50 50 50 49 51 48 46 47 46 46 46 43 43 44 44 43 40 41 44 44 43 42 42 43 43 43 41 40 39 39 39 39 39 39
42 47 51 54 55 55 54 51 52 52 51 51 49 49 48 48 47 46 46 45 45 44 42 42 43 43 41 43 44 43 41 41 42 41 42 41 41 40 39 38 38 39 39 39
45 49 49 51 52 53 54 54 53 53 52 50 49 47 47 46 45 45 45 44 44 42 41 41 42 41 42 45 44 41 41 41 41 41 39 38 39 39 39 41 44 44 42 41
39 48 45 46 51 54 52 51 51 50 50 50 49 46 46 45 46 45 43 43 42 42 40 40 41 41 42 45 43 41 39 40 39 39 38 38 38 38 42 46 48 48 49 47
46 51 50 51 53 53 51 51 52 50 49 48 49 47 45 44 45 45 43 43 41 39 39 40 40 41 41 44 43 41 39 39 38 38 37 37 37 37 38 43 47 47 48 48
51 49 45 49 47 52 52 52 52 51 50 49 47 47 45 44 44 42 41 42 42 41 40 40 40 39 41 42 42 41 40 41 38 37 37 37 37 40 42 41 40 41 46 47
49 50 49 50 50 50 51 50 48 46 46 46 46 45 45 43 41 41 42 43 42 40 40 41 40 38 41 42 41 40 40 37 38 38 38 39 40 41 41 41 40 41 42 44
49 50 49 47 47 48 48 47 45 44 45 46 45 45 45 44 41 40 41 41 38 36 39 40 38 39 41 42 40 40 39 40 40 38 37 38 39 40 40 40 39 39 39 40
44 44 45 44 45 45 45 46 45 44 44 44 43 44 44 42 40 38 39 40 40 39 40 38 38 39 42 42 40 39 38 37 40 37 37 37 39 39 39 38 38 38 38 41
49 48 48 47 46 45 45 46 45 43 42 42 44 43 41 38 35 36 38 40 40 40 39 39 39 40 41 41 42 39 38 37 37 37 37 37 38 39 38 37 37 37 37 39
51 50 49 50 49 47 45 44 44 44 45 44 43 39 39 38 37 38 39 38 37 36 36 39 42 41 40 41 42 39 37 36 36 37 37 38 37 37 37 37 37 37 37 38
50 51 51 50 50 48 46 45 45 43 43 45 42 39 37 35 37 38 38 36 38 36 38 39 39 37 39 41 42 39 37 36 36 36 36 36 36 36 36 37 37 37 38 38
50 50 49 48 47 48 47 46 44 42 43 44 39 35 33 36 38 39 36 33 37 39 39 41 38 37 40 41 39 38 37 36 36 36 36 35 36 36 36 36 37 38 38 38
49 48 47 47 46 45 46 45 44 43 42 40 40 38 36 36 38 38 38 35 37 43 38 36 36 40 41 42 38 37 37 37 36 36 36 35 35 35 36 37 37 38 38 38
48 47 47 46 45 43 44 43 42 42 40 38 37 37 34 34 36 32 34 39 37 39 36 35 40 42 42 38 37 36 36 36 35 35 36 36 36 36 37 37 37 38 38 38
47 47 47 47 46 44 40 41 41 41 40 39 38 39 36 32 33 37 40 42 43 39 37 37 39 42 41 37 37 37 35 36 36 36 37 37 36 37 37 37 37 38 38 39
47 46 46 43 40 37 39 39 38 38 38 37 37 39 37 37 34 35 39 39 42 39 35 40 41 41 36 37 37 37 36 35 37 37 36 36 36 36 37 38 38 38 38 39
46 43 41 42 39 38 38 39 36 36 37 34 39 38 37 38 37 38 36 39 36 39 34 35 35 36 35 36 37 37 37 36 36 36 38 37 37 37 37 37 38 38 39 39
45 47 42 41 41 41 40 38 37 36 39 36 36 38 38 38 37 38 41 35 35 35 34 34 35 36 35 36 36 38 36 37 36 36 37 37 37 37 38 38 38 38 39 39